Regional Weather Roundup
Issued by NWS Portland, ME

Current Version | Previous Version | Text Only | Print | Product List | Glossary Off
Versions: 1 2 3 4 5 6 7 8 9 10 11 12 13 14 15 16 17 18 19 20 21 22 23 24 25 26 27 28 29 30 31 32 33 34 35 36 37 38 39 40 41 42 43 44 45 46 47 48 49 50

000
ASUS41 KGYX 201305
RWRGYX
WEATHER ROUNDUP FOR MAINE AND NEW HAMPSHIRE
NATIONAL WEATHER SERVICE GRAY ME
800 AM EST SAT DEC 20 2014

MEZ002-005-006-010-012-015-018-020-021-024-026-027-029-201400-
MAINE

CITY           SKY/WX    TMP DP  RH WIND       PRES   REMARKS
PORTLAND       PTCLDY    25  16  68 N9        30.30R
SANFORD        CLEAR     23  12  63 NE9       30.28R
BAR HARBOR     CLOUDY    21  19  93 N8        30.30R
WISCASSET      CLEAR     23  16  74 VRB3      30.31R
ROCKLAND       CLOUDY    27  21  80 NE9       30.28R
FRYEBURG       CLEAR     13  10  88 W3        30.29R
LEWISTONAUBURN CLEAR     21  14  73 N7        30.27R
AUGUSTA        CLEAR     19  14  81 N6        30.30R
WATERVILLE     CLEAR     18  10  73 N8        30.27R
BANGOR         PTCLDY    18  13  80 N9        30.31R
GREENVILLE       N/A     11   8  88 CALM      30.21R
MILLINOCKET    PTCLDY     6   2  83 CALM      30.33R
HOULTON        CLOUDY    10   7  87 N3        30.31R
PRESQUE ISLE   MOCLDY    -6  -8  92 CALM      30.31R
FRENCHVILLE    CLOUDY    14  11  87 NE5       30.28R
CARIBOU        CLOUDY    11   8  88 NE5       30.31R
$$

NHZ002-005-008-009-011-012-014-201400-
NEW HAMPSHIRE

CITY           SKY/WX    TMP DP  RH WIND       PRES   REMARKS
PORTSMOUTH     PTCLDY    25  17  73 N8        30.28R
ROCHESTER      CLEAR     23  18  81 NW3       30.28R
NASHUA         CLEAR     21  20  96 CALM      30.31R
MANCHESTER     CLEAR     23  17  78 N5        30.29R
CONCORD        CLEAR     18  15  88 CALM      30.30R
LACONIA        CLEAR     18  16  93 CALM      30.26R
PLYMOUTH       FAIR      17  17  99 W3        30.29R
BERLIN         PTCLDY    -1  -7  75 CALM      30.26R
WHITEFIELD     CLOUDY    11   8  88 NW3       30.26R
JAFFREY        CLEAR     16  14  92 CALM      30.25R
KEENE          CLEAR     19  18  93 CALM      30.30R
LEBANON        CLEAR     12   8  84 CALM      30.30R
MT WASHINGTON  PTCLDY    23  -2  33 E17         N/A  WCI   9
$$

VTZ005-007-008-201400-
VERMONT

CITY           SKY/WX    TMP DP  RH WIND       PRES   REMARKS
ST JOHNSBURY     N/A      9   4  80 MISG      30.29R
MONTPELIER     PTCLDY     7   4  87 CALM      30.30R
BURLINGTON     PTCLDY    12   7  80 NE3       30.32R
$$

MAZ007-012-024-CTZ003-RIZ002-NYZ038-NYZ072-201400-
SOUTHERN NEW ENGLAND AND NY

CITY           SKY/WX    TMP DP  RH WIND       PRES   REMARKS
BOSTON         PTCLDY    28  20  71 NW10      30.28R WCI  19
WORCESTER      CLOUDY    25  17  72 N7        30.23R
NANTUCKET      CLOUDY    38  32  79 NW8       30.22R
PROVIDENCE     CLOUDY    30  21  69 N10       30.27R
HARTFORD       MOCLDY    27  18  69 N9        30.27R
ALBANY         PTCLDY    23  15  71 N6        30.32R
NEW YORK CITY  CLOUDY    31  21  66 N10       30.27S
$$

ANZ081-ANZ082-ANZ150-NHZ014-MEZ023>029-201400-
COASTAL MARINE OBSERVATIONS

STATION/POSITION TIME  TEMP    WIND        PRES    WAVE
                       AIR SEA DIR/SP/G            HT/PER
                 (UTC) (F)     (DEG/KT/KT) (MB)    (FT/S)
MOUNT DESERT ROC 1300   30                 1024.2R
MATINICUS ROCK   1200           50/ 13/ 18 1023.8R
PORTLAND WX BUOY 1250   29 43   30/ 14/ 17 1025.0R   2/ 4
WELLS            1200   26 40   10/  6/  8 1024.3R
ISLE OF SHOALS   1200   32      30/ 16/ 20 1023.4R
JEFFREYS LEDGE   1221      49                N/A     4/ 5
CASHES LEDGE BUO 1250   37 48   50/ 10/ 14 1023.4R   3/ 5
$$

.............KEY..............
   WCI - WIND CHILL
   TC  - TEMPERATURE IN CELSIUS
   VSB - VISIBILITY IN MILES
   HX  - HEAT INDEX
   FAIR- INDICATES FEW OR NO CLOUDS BELOW 12,000 FT, WITH NO
         SIGNIFICANT WEATHER AND/OR OBSTRUCTIONS TO VISIBILITY.





USA.gov is the U.S. government's official web portal to all federal, state and local government web resources and services.